Zurück zum Katalog

STARLINK-6329

AktivKommunikationVLEO
NORAD 56525·PAYLOAD·🇺🇸 United States

Gestartet May 14, 2023 von Cape Canaveral Space Force Station

Loading…

Nächste Überflüge (nächste 24 Stunden)

TLE

AktuellSource: CelesTrak SupGP

Epoche: Sep 15, 2026, 02:40 UTC

1 56525C 23065Y   26258.11159722 -.00023665  00000+0 -85728-3 0  2584
2 56525  43.0017 233.7168 0001729 272.0291 322.0824 15.27583862    11

Verfolge STARLINK-6329 in Echtzeit mit AllMySat

Download on the App Store